This is the latest recevied weather packets stored in our database for station/object W2EH. If no packets are shown the sender has not sent any weather packets the latest 10 day(s).
| Time | Temp. | Humidity | Pressure | Rain* | Wind** | Luminosity | Snow |
|---|---|---|---|---|---|---|---|
| 1777615172 | 15.56° C | 98% | 1011.9 hPa | 0 mm | - | 0 W/m² | - |
| 1777614868 | 15.56° C | 98% | 1012.1 hPa | 0 mm | - | 0 W/m² | - |
| 1777614565 | 15.56° C | 98% | 1012.4 hPa | 0 mm | - | 0 W/m² | - |
| 1777614260 | 15.56° C | 98% | 1012.3 hPa | 0 mm | - | 0 W/m² | - |
| 1777613955 | 15.56° C | 98% | 1012.5 hPa | 0 mm | - | 0 W/m² | - |
| 1777613652 | 16.11° C | 98% | 1012.8 hPa | 0 mm | - | 0 W/m² | - |
| 1777613350 | 16.11° C | 98% | 1012.4 hPa | 0 mm | - | 0 W/m² | - |
| 1777613046 | 16.11° C | 98% | 1012.4 hPa | 0.51 mm | - | 0 W/m² | - |
| 1777612743 | 16.11° C | 98% | 1013.5 hPa | 1.27 mm | - | 0 W/m² | - |
| 1777612438 | 16.11° C | 98% | 1012.8 hPa | 2.29 mm | - | 0 W/m² | - |
| 1777612133 | 16.11° C | 98% | 1012.8 hPa | 2.29 mm | - | 0 W/m² | - |
| 1777611829 | 16.11° C | 98% | 1012.9 hPa | 0.51 mm | - | 0 W/m² | - |
| 1777611525 | 16.67° C | 98% | 1013 hPa | 0 mm | - | 0 W/m² | - |
| 1777611222 | 16.67° C | 98% | 1013.1 hPa | 0 mm | - | 0 W/m² | - |
| 1777610919 | 16.67° C | 98% | 1013.2 hPa | 0 mm | - | 0 W/m² | - |
| 1777610614 | 16.67° C | 98% | 1013 hPa | 0 mm | - | 0 W/m² | - |
| 1777610313 | 16.67° C | 98% | 1013 hPa | 0 mm | - | 0 W/m² | - |
| 1777610010 | 16.67° C | 98% | 1012.6 hPa | 0 mm | - | 0 W/m² | - |
| 1777609706 | 16.67° C | 98% | 1013 hPa | 0 mm | - | 0 W/m² | - |
| 1777609404 | 16.67° C | 98% | 1013.2 hPa | 0 mm | - | 0 W/m² | - |
| 1777609101 | 16.67° C | 98% | 1013.3 hPa | 0.51 mm | - | 0 W/m² | - |
| 1777608798 | 16.67° C | 98% | 1013 hPa | 0.51 mm | - | 0 W/m² | - |
| 1777608495 | 16.67° C | 98% | 1012.6 hPa | 0 mm | - | 0 W/m² | - |
| 1777608193 | 16.67° C | 98% | 1010.7 hPa | 0 mm | - | 0 W/m² | - |
| 1777607889 | 16.67° C | 98% | 1010.8 hPa | 0.51 mm | - | 0 W/m² | - |
* Rain latest hour (hover to see other rain measurements)
** Current wind speed in m/s (hover to see current wind gust speed)